Mumbai, India

11:11 AM IST on September 28, 2016 (GMT +0530)
Chhatrapati Shivaji International

Weather History for VABB - October, 2012

Change the Weather History Date:

Wednesday, October 3, 2012

  Actual Average Record
Temperature  
Mean Temperature 84 °F -  
Max Temperature 90 °F 87 °F 98 °F (2003)
Min Temperature 78 °F 77 °F 75 °F (1996)
Cooling Degree Days 19    
Growing Degree Days 34 (Base 50)    
Moisture  
Dew Point 77 °F    
Average Humidity 81    
Maximum Humidity 94    
Minimum Humidity 58    
Precipitation  
Precipitation 1.89 in - - ()
Sea Level Pressure  
Sea Level Pressure 29.73 in    
Wind  
Wind Speed 5 mph ()    
Max Wind Speed 14 mph    
Max Gust Speed -    
Visibility 2.7 miles    
Events Rain , Thunderstorm    
Averages and records for this station are not official NWS values.
T = Trace of Precipitation, MM = Missing Value Source: Averaged Metar Reports

Daily Weather History Graph

Daily Weather History Graph

Search for Another Location

Airport or City:

Trip Planner

Search our weather history database for the weather conditions in past years. The results will help you decide how hot, cold, wet, or windy it might be!

Date:

Astronomy

Oct. 03, 2012 Rise Set
Actual Time 6:29 AM IST 6:25 PM IST
Civil Twilight 6:07 AM IST 6:47 PM IST
Nautical Twilight 5:42 AM IST 7:12 PM IST
Astronomical Twilight 5:16 AM IST 7:37 PM IST
Moon 8:30 PM IST (10/3) 8:58 AM IST (10/3)
Length of Visible Light 12h 39m
Length of Day
11h 55m
Waning Gibbous, 91% of the Moon is Illuminated
Oct 3
Waning Gibbous
Oct 8
Last Quarter
Oct 15
New
Oct 22
First Quarter
Oct 30
Full

Hourly Weather History & Observations

Time (IST) Temp. Heat Index Dew Point Humidity Pressure Visibility Wind Dir Wind Speed Gust Speed Precip Events Conditions
12:10 AM 80.6 °F 88.1 °F 78.8 °F 94% 29.77 in 2.5 mi East 6.9 mph - N/A   Haze
12:40 AM 80.6 °F 88.1 °F 78.8 °F 94% 29.74 in 2.5 mi SE 5.8 mph - N/A   Haze
1:10 AM 80.6 °F 88.1 °F 78.8 °F 94% 29.71 in 2.5 mi SE 3.5 mph - N/A   Haze
1:40 AM 80.6 °F 87.1 °F 77.0 °F 89% 29.71 in 2.5 mi Calm Calm - N/A   Haze
2:10 AM 80.6 °F 87.1 °F 77.0 °F 89% 29.71 in 2.5 mi SSW 5.8 mph - N/A   Haze
2:30 AM 81 °F - 76 °F 80% 29.72 in 1 mi Calm Calm - -   Haze
2:40 AM 80.6 °F 87.1 °F 77.0 °F 89% 29.71 in 2.5 mi South 5.8 mph - N/A   Haze
3:10 AM 80.6 °F 87.1 °F 77.0 °F 89% 29.71 in 2.5 mi South 4.6 mph - N/A   Haze
3:40 AM 80.6 °F 87.1 °F 77.0 °F 89% 29.71 in 2.5 mi East 8.1 mph - N/A   Haze
4:10 AM 78.8 °F - 77.0 °F 94% 29.71 in 2.5 mi ESE 6.9 mph - N/A   Haze
4:40 AM 78.8 °F - 77.0 °F 94% 29.71 in 2.5 mi ESE 4.6 mph - N/A   Haze
5:10 AM 78.8 °F - 77.0 °F 94% 29.71 in 2.5 mi Calm Calm - N/A   Haze
5:30 AM 80 °F - 76 °F 84% 29.72 in 1 mi Calm Calm - -   Haze
6:10 AM 80.6 °F 87.1 °F 77.0 °F 89% 29.71 in 1.9 mi Variable 3.5 mph - N/A   Haze
6:40 AM 80.6 °F 87.1 °F 77.0 °F 89% 29.74 in 1.2 mi East 4.6 mph - N/A   Haze
7:40 AM 80.6 °F 87.1 °F 77.0 °F 89% 29.77 in 2.5 mi Calm Calm - N/A   Haze
8:10 AM 80.6 °F 87.1 °F 77.0 °F 89% 29.77 in 2.5 mi SSE 5.8 mph - N/A   Haze
8:30 AM 82 °F - 77 °F 82% 29.77 in 1 mi Calm Calm - - Rain Light Drizzle
8:40 AM 82.4 °F 90.9 °F 77.0 °F 84% 29.77 in 2.5 mi South 3.5 mph - N/A   Haze
9:40 AM 84.2 °F 94.1 °F 77.0 °F 79% 29.77 in 3.7 mi South 4.6 mph - N/A   Mostly Cloudy
10:10 AM 84.2 °F 94.1 °F 77.0 °F 79% 29.77 in 3.7 mi SSW 8.1 mph - N/A   Mostly Cloudy
10:40 AM 84.2 °F 92.3 °F 75.2 °F 74% 29.77 in 4.3 mi SSW 10.4 mph - N/A   Mostly Cloudy
11:10 AM 86.0 °F 96.9 °F 77.0 °F 74% 29.77 in 4.3 mi South 10.4 mph - N/A   Mostly Cloudy
11:30 AM 89 °F - 76 °F 59% 29.77 in 1 mi South 4.6 mph - -   Smoke
11:40 AM 86.0 °F 95.1 °F 75.2 °F 70% 29.77 in 4.3 mi South 9.2 mph - N/A   Mostly Cloudy
12:10 PM 87.8 °F 97.6 °F 75.2 °F 66% 29.74 in 4.3 mi SSE 8.1 mph - N/A   Mostly Cloudy
12:40 PM 87.8 °F 97.6 °F 75.2 °F 66% 29.74 in 4.3 mi South 6.9 mph - N/A   Mostly Cloudy
1:10 PM 86.0 °F 96.9 °F 77.0 °F 74% 29.74 in 3.7 mi SSW 10.4 mph - N/A   Mostly Cloudy
1:40 PM 86.0 °F 96.9 °F 77.0 °F 74% 29.71 in 3.7 mi SW 11.5 mph - N/A   Mostly Cloudy
2:10 PM 86.0 °F 96.9 °F 77.0 °F 74% 29.71 in 3.7 mi WSW 10.4 mph - N/A   Mostly Cloudy
2:30 PM 89 °F - 76 °F 58% 29.70 in 2 mi WSW 11.5 mph - -   Smoke
2:40 PM 87.8 °F 99.7 °F 77.0 °F 70% 29.68 in 3.7 mi WSW 11.5 mph - N/A   Scattered Clouds
3:10 PM 86.0 °F 96.9 °F 77.0 °F 74% 29.68 in 3.7 mi SW 12.7 mph - N/A   Scattered Clouds
3:40 PM 86.0 °F 96.9 °F 77.0 °F 74% 29.68 in 3.7 mi WSW 13.8 mph - N/A   Scattered Clouds
4:40 PM 84.2 °F 94.1 °F 77.0 °F 79% 29.68 in 3.7 mi WSW 11.5 mph - N/A   Scattered Clouds
5:10 PM 84.2 °F 94.1 °F 77.0 °F 79% 29.68 in 3.7 mi WSW 6.9 mph - N/A   Scattered Clouds
5:30 PM 86 °F - 77 °F 69% 29.70 in 1 mi WSW 6.9 mph - -   Haze
5:40 PM 84.2 °F 94.1 °F 77.0 °F 79% 29.68 in 3.7 mi WSW 11.5 mph - N/A   Scattered Clouds
6:10 PM 84.2 °F 94.1 °F 77.0 °F 79% 29.71 in 3.7 mi WSW 10.4 mph - N/A   Scattered Clouds
6:40 PM 84.2 °F 94.1 °F 77.0 °F 79% 29.71 in 3.7 mi WSW 8.1 mph - N/A   Scattered Clouds
7:10 PM 84.2 °F 94.1 °F 77.0 °F 79% 29.71 in 3.1 mi SW 6.9 mph - N/A   Haze
8:10 PM 84.2 °F 96.1 °F 78.8 °F 84% 29.74 in 2.5 mi SW 5.8 mph - N/A Thunderstorm Thunderstorm
8:30 PM 84 °F - 78 °F 76% 29.75 in 1 mi Calm Calm - - Rain Light Drizzle
8:40 PM 84.2 °F 96.1 °F 78.8 °F 84% 29.77 in 2.5 mi SW 5.8 mph - N/A   Drizzle
11:10 PM 80.6 °F 88.1 °F 78.8 °F 94% 29.77 in 0.5 mi North 3.5 mph - N/A Rain , Thunderstorm Heavy Thunderstorms and Rain
11:30 PM 79 °F - 77 °F 92% 29.76 in 1 mi South 4.6 mph - - Rain , Thunderstorm Thunderstorms and Rain